SCOUT A R/B, 3137

Orbit data source: Space-Track

SCOUT A R/B, 3137 is space debris in LEO originally from a launch on Sat, 02 Mar 1968 UTC launched from the Air Force Western Test Range (AFWTR). Debris objects in space refer to the collection of defunct objects orbiting the Earth. Examples of debris include non-operational satellites, rocket bodies, and fragments generated from explosions, collisions, or faulty payload assembly.

Loading next visibility...
Identifier
3137, 1968-012B
Orbit
LEO
Country
Flag of USUS
Related business
Manufacturer
ABL
Mission
Spacecraft
Bus & Motor
ALTAIR, Unknown motor
Mass
33 kg wet, 33 kg dry
Launch date (UTC)
1968-03-02 (58 years ago)
Launch vehicle
Unknown
Launch site
Air Force Western Test Range (AFWTR)
Object type
Payload
Rocket body
Debris
Shape & HBR
Cyl, 0.8 m
Radar Cross Section
0.687 m², Medium (>0.1 m² and < 1m²)

Expand to show TLE details & history
Last TLE update: 18 hours ago

TLE from 18 hours ago
0 SCOUT A R/B
1 03137U 68012B   25260.61416028  .00000041  00000-0  48334-4 0  9995
2 03137  90.0209 272.7894 0076407 137.9791 222.7256 13.50275330832004
Epoch: 2025-09-17T14:44Z
TLE epoch observation values (Epoch: 2025-09-17T14:44:23.448Z)
Latitude
0.00001°
Longitude
54.90412°
Altitude
1,116.22 km
Speed
7.274 km/s
True Right ascension
18h 11m 09s
True Declination
0° 00' 00"
Sunlit
Object was in daylight at epoch
Visualization orbit readout
Latitude
Unknown
Longitude
Unknown
Altitude
Unknown
Speed
Unknown
Apparent Right ascension
Unknown
Apparent Declination
Unknown
Sunlit
N/A
Visualization observer readout
Local Sidereal Time
01:59:28
Azimuth
Unknown
Elevation
Unknown
Doppler factor
Unknown
Orbital elements
Apogee altitude
1,125.191 km
Perigee altitude
1,011.399 km
Semi-major axis
7,446.432 km
Eccentricity
0.00764
Inclination
90.0209°
RAAN
272.7894°
Arg. of periapsis
137.9791°
True anomaly
222.13569°
Mean anomaly
222.7256°
Eccentric anomaly
222.43023°
Mean motion
3.3777 °/min
Orbital period
106.58 mins
BSTAR
0.000048334
Loading maneuver chart data...
Computing Atmospheric mass density...
Loading historical data...
Loading historical data...
Loading historical data...
Loading historical data...
Loading historical data...
Loading historical data...
Loading historical data...

Documentation

Showing up to 5 results
|